Weather History for New Castle, PA

Change the Weather History Date:

Thursday, February 14, 2013

  Actual Average Record
Temperature  
Mean Temperature 29 °F -  
Max Temperature 36 °F 37 °F 65 °F (1990)
Min Temperature 22 °F 17 °F -16 °F (1934)
Degree Days  
Heating Degree Days 36    
Moisture  
Dew Point 28 °F    
Average Humidity 88    
Maximum Humidity 93    
Minimum Humidity 76    
Precipitation  
Precipitation 0.00 in - - ()
Sea Level Pressure  
Sea Level Pressure 29.94 in    
Wind  
Wind Speed 4 mph (SSW)    
Max Wind Speed 15 mph    
Max Gust Speed -    
Visibility 7 miles    
Events      
Averages and records for this station are not official NWS values.
T = Trace of Precipitation, MM = Missing Value Source: NWS Daily Summary

Daily Weather History Graph

Daily Weather History Graph

Search for Another Location

Airport:

Trip Planner

Search our weather history database for the weather conditions in past years. The results will help you decide how hot, cold, wet, or windy it might be!

Date:

Astronomy

Feb. 14, 2013 Rise Set
Actual Time 7:17 AM EST 5:55 PM EST
Civil Twilight 6:48 AM EST 6:23 PM EST
Nautical Twilight 6:16 AM EST 6:55 PM EST
Astronomical Twilight 5:44 AM EST 7:27 PM EST
Moon 9:15 AM EST (2/14) 10:59 PM EST (2/14)
Length of Visible Light 11h 34m
Length of Day
10h 38m
Waxing Crescent, 21% of the Moon is Illuminated
Feb 14
Waxing Crescent
Feb 17
First Quarter
Feb 25
Full
Mar 4
Last Quarter
Mar 11
New

Hourly Weather History & Observations

Time (EST) Temp. Windchill Dew Point Humidity Pressure Visibility Wind Dir Wind Speed Gust Speed Precip Events Conditions
12:56 AM 23.0 °F - 20.1 °F 89% 29.94 in 5.0 mi Calm Calm - N/A   Clear
1:56 AM 23.0 °F - 20.1 °F 89% 29.95 in 5.0 mi Calm Calm - N/A   Clear
2:56 AM 22.1 °F - 20.1 °F 92% 29.95 in 5.0 mi Calm Calm - N/A   Clear
3:56 AM 22.1 °F - 20.1 °F 92% 29.95 in 4.0 mi Calm Calm - N/A   Clear
4:56 AM 23.0 °F 14.7 °F 21.0 °F 92% 29.97 in 4.0 mi SSW 6.9 mph - N/A   Partly Cloudy
5:56 AM 24.1 °F 17.0 °F 22.1 °F 92% 29.97 in 3.0 mi Variable 5.8 mph - N/A   Mostly Cloudy
6:07 AM 24.8 °F 20.5 °F 23.0 °F 93% 29.89 in 3.0 mi Variable 3.5 mph - N/A   Mostly Cloudy
6:56 AM 26.1 °F 20.5 °F 24.1 °F 92% 29.99 in 3.0 mi Variable 4.6 mph - N/A   Mostly Cloudy
7:39 AM 26.6 °F 21.2 °F 24.8 °F 93% 29.91 in 2.5 mi Variable 4.6 mph - N/A   Overcast
7:56 AM 27.1 °F 20.7 °F 25.2 °F 92% 29.99 in 2.5 mi Variable 5.8 mph - N/A   Overcast
8:11 AM 28.4 °F 22.2 °F 24.8 °F 86% 29.91 in 3.0 mi Variable 5.8 mph - N/A   Overcast
8:56 AM 29.1 °F 23.0 °F 27.1 °F 92% 29.99 in 3.0 mi Variable 5.8 mph - 0.00 in   Overcast
9:56 AM 30.0 °F 25.2 °F 28.0 °F 92% 29.99 in 4.0 mi South 4.6 mph - N/A   Overcast
10:56 AM 32.9 °F 25.9 °F 29.1 °F 86% 29.99 in 7.0 mi South 8.1 mph - N/A   Overcast
11:56 AM 34.0 °F 28.0 °F 30.0 °F 85% 29.98 in 9.0 mi SSW 6.9 mph - N/A   Overcast
12:56 PM 34.9 °F 27.7 °F 30.0 °F 82% 29.96 in 10.0 mi SSW 9.2 mph - N/A   Overcast
1:26 PM 35.6 °F 29.2 °F 30.2 °F 81% 29.87 in 10.0 mi South 8.1 mph - N/A   Overcast
1:56 PM 36.0 °F 31.1 °F 30.0 °F 79% 29.94 in 10.0 mi Variable 5.8 mph - N/A   Mostly Cloudy
2:56 PM 36.0 °F 29.0 °F 31.1 °F 82% 29.94 in 7.0 mi South 9.2 mph - N/A   Mostly Cloudy
3:56 PM 36.0 °F 29.6 °F 31.1 °F 82% 29.92 in 10.0 mi South 8.1 mph - N/A   Overcast
4:56 PM 36.9 °F 29.1 °F 31.1 °F 80% 29.92 in 10.0 mi SSW 11.5 mph - N/A   Overcast
5:56 PM 36.0 °F 33.3 °F 32.0 °F 86% 29.93 in 8.0 mi Variable 3.5 mph - 0.00 in   Overcast
6:24 PM 35.6 °F 31.7 °F 32.0 °F 87% 29.86 in 10.0 mi SSW 4.6 mph - 0.00 in   Mostly Cloudy
6:56 PM 36.0 °F - 32.0 °F 86% 29.94 in 10.0 mi Calm Calm - 0.00 in   Overcast
7:26 PM 35.6 °F 31.7 °F 33.8 °F 93% 29.87 in 10.0 mi SSW 4.6 mph - 0.00 in   Overcast
7:33 PM 35.6 °F 31.7 °F 33.8 °F 93% 29.87 in 10.0 mi Variable 4.6 mph - 0.00 in   Overcast
7:56 PM 36.0 °F 31.1 °F 32.0 °F 86% 29.94 in 10.0 mi South 5.8 mph - 0.00 in   Overcast
8:56 PM 34.9 °F 30.8 °F 32.0 °F 89% 29.93 in 10.0 mi SSW 4.6 mph - 0.00 in   Clear
10:27 PM 35.6 °F 30.7 °F 33.8 °F 93% 29.86 in 10.0 mi SW 5.8 mph - 0.00 in   Mostly Cloudy
10:56 PM 36.9 °F 29.6 °F 32.9 °F 86% 29.94 in 10.0 mi WSW 10.4 mph - 0.00 in   Overcast
11:56 PM 36.9 °F 27.8 °F 30.0 °F 76% 29.96 in 10.0 mi WSW 15.0 mph - N/A   Overcast